FW7504 Weather Reports


time (UTC)temp
C
wind
direction
speed
KPH
gust
KPH
rain 1hr
cm
rain 24hr
cm
rain mn
cm
humidity
%
barometer
mb
20260502193109 18 0 8.0 16.1 0.00 0.00 0.00 35 1015.6
20260502192552 18 360 4.8 17.7 0.00 0.00 0.00 37 1015.7
20260502192052 18 360 6.4 17.7 0.00 0.00 0.00 36 1015.8
20260502191559 18 360 4.8 22.5 0.00 0.00 0.00 36 1015.8
20260502191052 18 360 8.0 22.5 0.00 0.00 0.00 37 1015.7
20260502190553 18 360 6.4 20.9 0.00 0.00 0.00 37 1015.7
20260502190106 18 360 6.4 20.9 0.00 0.00 0.00 37 1015.8
20260502185554 18 360 9.7 19.3 0.00 0.00 0.00 38 1015.8
20260502185053 18 360 3.2 22.5 0.00 0.00 0.00 39 1015.9
20260502184559 18 360 8.0 22.5 0.00 0.00 0.00 40 1016.0
20260502184053 18 360 6.4 16.1 0.00 0.00 0.00 40 1016.0
20260502183553 18 360 6.4 20.9 0.00 0.00 0.00 37 1016.1
20260502183109 18 360 4.8 20.9 0.00 0.00 0.00 39 1016.0
20260502182552 18 360 6.4 24.1 0.00 0.00 0.00 37 1016.1
20260502182052 18 360 4.8 24.1 0.00 0.00 0.00 38 1016.1
20260502181552 18 360 9.7 24.1 0.00 0.00 0.00 39 1016.1
20260502181053 18 360 6.4 20.9 0.00 0.00 0.00 40 1016.1
20260502180557 18 360 6.4 19.3 0.00 0.00 0.00 38 1016.1
20260502164052 16 360 4.8 20.9 0.00 0.00 0.00 43 1016.8
20260502163552 16 360 9.7 19.3 0.00 0.00 0.00 42 1016.8
20260502163056 16 360 6.4 16.1 0.00 0.00 0.00 42 1016.9
20260502162553 16 360 6.4 17.7 0.00 0.00 0.00 43 1017.0
20260502162052 16 360 6.4 17.7 0.00 0.00 0.00 42 1017.1
20260502161611 16 360 4.8 19.3 0.00 0.00 0.00 43 1017.1
20260502161055 16 360 8.0 19.3 0.00 0.00 0.00 44 1017.0
20260502160554 16 360 4.8 17.7 0.00 0.00 0.00 44 1017.0
20260502152057 16 360 4.8 20.9 0.00 0.00 0.00 43 1016.6
20260502151606 16 360 3.2 20.9 0.00 0.00 0.00 43 1016.6
20260502151052 16 360 8.0 22.5 0.00 0.00 0.00 44 1016.6
20260502150552 16 360 8.0 22.5 0.00 0.00 0.00 45 1016.6
20260502130552 12 360 6.4 20.9 0.00 0.00 0.00 61 1016.1
20260502123552 11 360 3.2 12.9 0.00 0.00 0.00 65 1015.8
20260502123053 11 360 4.8 12.9 0.00 0.00 0.00 66 1015.9
20260502122552 11 360 1.6 9.7 0.00 0.00 0.00 66 1015.7
20260502122052 11 360 3.2 9.7 0.00 0.00 0.00 66 1015.8
20260502121554 11 360 3.2 8.0 0.00 0.00 0.00 66 1015.5
20260502121053 11 360 1.6 9.7 0.00 0.00 0.00 66 1015.5
20260502120552 11 360 1.6 9.7 0.00 0.00 0.00 66 1015.6
20260502115553 11 360 1.6 8.0 0.00 0.00 0.00 65 1015.5
20260502115057 11 360 1.6 8.0 0.00 0.00 0.00 65 1015.7
20260502114554 11 360 1.6 8.0 0.00 0.00 0.00 65 1015.6
20260502114053 11 360 1.6 8.0 0.00 0.00 0.00 65 1015.6
20260502113555 11 0 1.6 8.0 0.00 0.00 0.00 65 1015.5
20260502113051 11 0 1.6 12.9 0.00 0.00 0.00 64 1015.5
20260502112552 11 360 3.2 12.9 0.00 0.00 0.00 64 1015.4
20260502112052 11 360 1.6 9.7 0.00 0.00 0.00 64 1015.6
20260502111605 11 360 1.6 9.7 0.00 0.00 0.00 64 1015.5
20260502111052 11 360 3.2 9.7 0.00 0.00 0.00 64 1015.5
20260502110552 11 0 3.2 9.7 0.00 0.00 0.00 64 1015.5
20260502110055 11 360 1.6 8.0 0.00 0.00 0.00 64 1015.4
20260502105553 11 360 3.2 8.0 0.00 0.00 0.00 63 1015.3
20260502105052 11 360 3.2 12.9 0.00 0.00 0.00 64 1015.1
20260502104558 11 360 3.2 12.9 0.00 0.00 0.00 63 1015.0
20260502104053 11 360 1.6 8.0 0.00 0.00 0.00 63 1015.1
20260502103556 11 360 1.6 9.7 0.00 0.00 0.00 63 1015.2
20260502103055 11 0 1.6 12.9 0.00 0.00 0.00 63 1015.1
20260502102553 11 360 3.2 12.9 0.00 0.00 0.00 63 1015.0
20260502102052 11 360 3.2 9.7 0.00 0.00 0.00 62 1015.0
20260502101554 11 360 1.6 8.0 0.00 0.00 0.00 62 1015.2
20260502101052 11 360 1.6 8.0 0.00 0.00 0.00 62 1015.3
20260502100552 11 360 1.6 8.0 0.00 0.00 0.00 62 1015.2
20260502091052 12 360 3.2 14.5 0.00 0.00 0.00 58 1015.0
20260502090552 12 360 4.8 12.9 0.00 0.00 0.00 58 1015.0
20260502090111 12 360 3.2 12.9 0.00 0.00 0.00 58 1015.3
20260502071054 13 360 3.2 12.9 0.00 0.00 0.00 52 1015.6
20260502070552 13 360 1.6 12.9 0.00 0.00 0.00 53 1016.0
20260502070104 13 0 3.2 12.9 0.00 0.00 0.00 52 1016.1
20260502065552 13 360 3.2 9.7 0.00 0.00 0.00 53 1016.2
20260502065052 13 360 1.6 8.0 0.00 0.00 0.00 53 1016.1
20260502064551 13 360 0.0 6.4 0.00 0.00 0.00 53 1016.1
20260502064052 13 0 1.6 6.4 0.00 0.00 0.00 52 1016.1
20260502063553 13 0 0.0 8.0 0.00 0.00 0.00 52 1016.1
20260502063055 13 0 1.6 8.0 0.00 0.00 0.00 52 1015.8
20260502062553 13 0 0.0 8.0 0.00 0.00 0.00 52 1015.9
20260502062052 13 360 1.6 8.0 0.00 0.00 0.00 51 1015.9
20260502061555 13 360 1.6 8.0 0.00 0.00 0.00 51 1015.9
20260502061051 13 0 1.6 8.0 0.00 0.00 0.00 51 1016.0
20260502060555 13 360 1.6 8.0 0.00 0.00 0.00 51 1016.2
20260502060053 13 360 3.2 8.0 0.00 0.00 0.00 51 1016.3
20260502055552 13 360 3.2 8.0 0.00 0.00 0.00 51 1016.2
20260502055053 13 360 1.6 6.4 0.00 0.00 0.00 51 1016.2
20260502054553 13 0 1.6 6.4 0.00 0.00 0.00 50 1016.0
20260502054052 14 0 3.2 12.9 0.00 0.00 0.00 50 1016.0
20260502053552 14 0 3.2 12.9 0.00 0.00 0.00 50 1015.8
20260502053119 14 0 3.2 12.9 0.00 0.00 0.00 50 1015.8
20260502052552 14 360 3.2 8.0 0.00 0.00 0.00 50 1015.7
20260502052052 14 360 1.6 8.0 0.00 0.00 0.00 50 1015.5
20260502051604 14 360 1.6 9.7 0.00 0.00 0.00 49 1015.5
20260502051052 14 0 3.2 16.1 0.00 0.00 0.00 49 1015.7
20260502050554 14 360 1.6 16.1 0.00 0.00 0.00 49 1015.6
20260502050056 14 360 6.4 16.1 0.00 0.00 0.00 48 1015.6
20260502045552 14 360 4.8 14.5 0.00 0.00 0.00 49 1015.7
20260502045055 15 360 4.8 17.7 0.00 0.00 0.00 50 1015.8
20260502044554 15 360 3.2 17.7 0.00 0.00 0.00 50 1015.8
20260502044054 15 360 4.8 19.3 0.00 0.00 0.00 50 1015.8
20260502043552 15 360 6.4 19.3 0.00 0.00 0.00 50 1015.7
20260502043057 15 360 4.8 16.1 0.00 0.00 0.00 52 1015.7
20260502042552 15 360 4.8 14.5 0.00 0.00 0.00 53 1015.6
20260502042052 15 360 4.8 14.5 0.00 0.00 0.00 54 1015.7
20260502041621 15 360 3.2 14.5 0.00 0.00 0.00 54 1015.7
20260502041052 15 360 3.2 14.5 0.00 0.00 0.00 55 1015.8
20260502040552 15 360 3.2 12.9 0.00 0.00 0.00 56 1015.8
20260502040057 15 360 1.6 9.7 0.00 0.00 0.00 57 1016.0
20260502035552 15 360 1.6 9.7 0.00 0.00 0.00 56 1015.8
20260502035052 15 360 1.6 14.5 0.00 0.00 0.00 56 1015.9
20260502034559 15 360 3.2 14.5 0.00 0.00 0.00 57 1015.8
20260502034052 15 360 4.8 16.1 0.00 0.00 0.00 56 1015.7
20260502033551 15 360 1.6 16.1 0.00 0.00 0.00 57 1015.7
20260502033106 15 360 6.4 17.7 0.00 0.00 0.00 58 1015.8
20260502032552 15 360 3.2 19.3 0.00 0.00 0.00 58 1015.7
20260502032052 15 360 8.0 19.3 0.00 0.00 0.00 58 1015.6
20260502031558 16 360 6.4 17.7 0.00 0.00 0.00 59 1015.8
20260502031055 16 360 0.0 8.0 0.00 0.00 0.00 60 1015.8
20260502030554 16 0 1.6 17.7 0.00 0.00 0.00 60 1015.7
20260502030057 16 0 3.2 17.7 0.00 0.00 0.00 60 1015.7
20260502025552 16 360 4.8 19.3 0.00 0.00 0.00 60 1015.8
20260502025052 16 360 6.4 19.3 0.00 0.00 0.00 60 1015.7
20260502024556 16 360 3.2 8.0 0.00 0.00 0.00 60 1015.4
20260502024052 16 360 1.6 6.4 0.00 0.00 0.00 60 1015.5
20260502023554 16 360 0.0 6.4 0.00 0.00 0.00 62 1015.5
20260502023055 16 360 0.0 6.4 0.00 0.00 0.00 62 1015.5
20260502022552 16 360 1.6 6.4 0.00 0.00 0.00 62 1015.5
20260502022052 16 0 0.0 14.5 0.00 0.00 0.00 62 1015.4
20260502021552 16 360 1.6 14.5 0.00 0.00 0.00 62 1015.4
20260502021051 16 360 4.8 14.5 0.00 0.00 0.00 61 1015.4
20260502020552 16 360 3.2 14.5 0.00 0.00 0.00 62 1015.4
20260502020059 16 360 3.2 14.5 0.00 0.00 0.00 62 1015.4
20260502015552 16 360 3.2 6.4 0.00 0.00 0.00 63 1015.3
20260502015052 16 360 1.6 6.4 0.00 0.00 0.00 65 1015.2
20260502014553 16 0 0.0 3.2 0.00 0.00 0.00 65 1015.0
20260502014052 16 0 0.0 4.8 0.00 0.00 0.00 66 1015.2
20260502013555 16 0 0.0 4.8 0.00 0.00 0.00 67 1015.0
20260502013052 16 360 0.0 3.2 0.00 0.00 0.00 67 1015.1
20260502012554 16 0 0.0 3.2 0.00 0.00 0.00 67 1014.9
20260502012052 16 0 0.0 4.8 0.00 0.00 0.00 66 1014.9
20260502011553 16 0 0.0 4.8 0.00 0.00 0.00 65 1014.7
20260502011053 16 0 0.0 0.0 0.00 0.00 0.00 67 1014.7
20260502010552 16 0 0.0 3.2 0.00 0.00 0.00 66 1014.5
20260502005552 16 0 0.0 3.2 0.00 0.00 0.00 66 1014.2
20260502005053 17 0 0.0 3.2 0.00 0.00 0.00 64 1014.2
20260502004553 17 0 0.0 3.2 0.00 0.00 0.00 64 1014.1
20260502004052 17 0 0.0 0.0 0.00 0.00 0.00 64 1014.0
20260502003552 17 0 0.0 1.6 0.00 0.00 0.00 63 1013.9
20260502003053 17 0 0.0 1.6 0.00 0.00 0.00 63 1013.9
20260502002552 17 0 0.0 1.6 0.00 0.00 0.00 63 1014.0
20260502002052 17 0 0.0 0.0 0.00 0.00 0.00 60 1014.0
20260502001600 17 0 0.0 0.0 0.00 0.00 0.00 61 1013.8
20260502001053 17 0 0.0 0.0 0.00 0.00 0.00 60 1013.5
20260502000552 17 0 0.0 0.0 0.00 0.00 0.00 59 1013.7
20260502000051 17 0 0.0 0.0 0.00 0.00 0.00 61 1013.7
20260501235554 18 0 0.0 0.0 0.00 0.00 0.00 59 1013.8
20260501235052 18 0 0.0 0.0 0.00 0.00 0.00 59 1013.8
20260501234551 18 0 0.0 0.0 0.00 0.00 0.00 59 1013.6
20260501234053 18 0 0.0 0.0 0.00 0.00 0.00 59 1013.5
20260501233552 18 0 0.0 0.0 0.00 0.00 0.00 56 1013.7
20260501233107 18 0 0.0 0.0 0.00 0.00 0.00 57 1013.8
20260501232548 18 0 0.0 0.0 0.00 0.00 0.00 58 1013.8
20260501232051 18 0 0.0 0.0 0.00 0.00 0.00 57 1013.8
20260501231602 18 0 0.0 0.0 0.00 0.00 0.00 58 1013.6
20260501231051 18 0 0.0 1.6 0.00 0.00 0.00 56 1013.6
20260501230552 18 0 0.0 3.2 0.00 0.00 0.00 55 1013.7
20260501230053 18 360 0.0 3.2 0.00 0.00 0.00 53 1013.4
20260501225552 18 0 0.0 1.6 0.00 0.00 0.00 54 1013.2
20260501225053 19 0 0.0 0.0 0.00 0.00 0.00 55 1013.2
20260501224552 19 0 0.0 0.0 0.00 0.00 0.00 54 1013.1
20260501224056 19 0 0.0 0.0 0.00 0.00 0.00 53 1013.1
20260501223556 19 0 0.0 3.2 0.00 0.00 0.00 54 1013.1
20260501223122 19 0 0.0 3.2 0.00 0.00 0.00 52 1013.1
20260501222552 19 0 0.0 4.8 0.00 0.00 0.00 52 1013.1
20260501222054 19 0 0.0 4.8 0.00 0.00 0.00 52 1013.1
20260501221552 19 360 0.0 3.2 0.00 0.00 0.00 55 1013.0
20260501221051 19 0 0.0 3.2 0.00 0.00 0.00 53 1012.8
20260501220551 20 0 0.0 3.2 0.00 0.00 0.00 51 1012.9
20260501220101 20 0 0.0 1.6 0.00 0.00 0.00 53 1013.0
20260501215553 20 0 0.0 3.2 0.00 0.00 0.00 54 1013.1
20260501215056 20 0 0.0 3.2 0.00 0.00 0.00 53 1013.3
20260501214554 20 0 0.0 1.6 0.00 0.00 0.00 54 1013.3
20260501214052 20 0 0.0 3.2 0.00 0.00 0.00 55 1013.4
20260501213552 20 360 0.0 3.2 0.00 0.00 0.00 55 1013.5
20260501213055 20 0 0.0 3.2 0.00 0.00 0.00 55 1013.7
20260501212552 20 360 0.0 3.2 0.00 0.00 0.00 55 1013.8
20260501212053 19 0 0.0 3.2 0.00 0.00 0.00 55 1013.7
20260501211556 19 360 0.0 3.2 0.00 0.00 0.00 54 1013.9
20260501211052 19 0 0.0 4.8 0.00 0.00 0.00 52 1014.0
20260501210548 19 0 0.0 4.8 0.00 0.00 0.00 54 1014.1
20260501210051 19 360 0.0 4.8 0.00 0.00 0.00 53 1014.1
20260501205552 19 0 0.0 4.8 0.00 0.00 0.00 52 1014.2
20260501205049 20 0 0.0 4.8 0.00 0.00 0.00 53 1014.0
20260501204616 20 0 0.0 4.8 0.00 0.00 0.00 50 1014.3
20260501204048 20 0 0.0 3.2 0.00 0.00 0.00 53 1014.3
20260501203551 20 360 0.0 3.2 0.00 0.00 0.00 52 1014.4
20260501203053 19 0 0.0 4.8 0.00 0.00 0.00 51 1014.3
20260501202548 19 360 0.0 4.8 0.00 0.00 0.00 51 1014.3
20260501202052 19 360 0.0 4.8 0.00 0.00 0.00 50 1014.5
20260501201554 19 360 0.0 4.8 0.00 0.00 0.00 49 1014.4
20260501201052 19 360 0.0 4.8 0.00 0.00 0.00 49 1014.6
20260501200552 19 0 1.6 4.8 0.00 0.00 0.00 48 1014.6
20260501200056 19 0 0.0 4.8 0.00 0.00 0.00 53 1014.7
20260501195553 19 360 0.0 4.8 0.00 0.00 0.00 50 1015.0
20260501195053 19 0 1.6 4.8 0.00 0.00 0.00 48 1014.9
20260501194552 20 360 0.0 1.6 0.00 0.00 0.00 48 1015.0
20260501194049 20 0 0.0 6.4 0.00 0.00 0.00 48 1014.9
20260501193551 20 0 0.0 6.4 0.00 0.00 0.00 47 1015.2